Weather History for Peru, IN

Change the Weather History Date:

Tuesday, March 26, 2013

  Actual Average Record
Temperature  
Mean Temperature 34 °F -  
Max Temperature 38 °F 51 °F 75 °F (1998)
Min Temperature 30 °F 34 °F 15 °F (2001)
Degree Days  
Heating Degree Days 32    
Moisture  
Dew Point 30 °F    
Average Humidity 87    
Maximum Humidity 100    
Minimum Humidity 63    
Precipitation  
Precipitation 0.00 in - - ()
Sea Level Pressure  
Sea Level Pressure 30.13 in    
Wind  
Wind Speed 11 mph (WNW)    
Max Wind Speed 15 mph    
Max Gust Speed 22 mph    
Visibility 10 miles    
Events Snow    
Averages and records for this station are not official NWS values.
T = Trace of Precipitation, MM = Missing Value Source: NWS Daily Summary

Daily Weather History Graph

Daily Weather History Graph

Search for Another Location

Airport:

Trip Planner

Search our weather history database for the weather conditions in past years. The results will help you decide how hot, cold, wet, or windy it might be!

Date:

Astronomy

Mar. 26, 2013 Rise Set
Actual Time 7:37 AM EDT 8:03 PM EDT
Civil Twilight 7:10 AM EDT 8:30 PM EDT
Nautical Twilight 6:38 AM EDT 9:03 PM EDT
Astronomical Twilight 6:05 AM EDT 9:36 PM EDT
Moon 7:39 PM EDT (3/26) 6:54 AM EDT (3/26)
Length of Visible Light 13h 20m
Length of Day
12h 25m
Waxing Gibbous, 99% of the Moon is Illuminated
Mar 26
Waxing Gibbous
Mar 27
Full
Apr 3
Last Quarter
Apr 10
New
Apr 18
First Quarter

Hourly Weather History & Observations

Time (EDT) Temp. Windchill Dew Point Humidity Pressure Visibility Wind Dir Wind Speed Gust Speed Precip Events Conditions
12:22 AM 32.0 °F 23.0 °F 30.2 °F 93% 30.01 in 10.0 mi WNW 11.5 mph - N/A   Overcast
12:36 AM 32.0 °F 22.5 °F 30.2 °F 93% 30.01 in 10.0 mi WNW 12.7 mph - N/A   Overcast
12:55 AM 31.8 °F 22.8 °F 30.6 °F 95% 30.01 in 10.0 mi WNW 11.5 mph - 0.00 in Snow Light Snow
1:33 AM 32.0 °F 23.0 °F 30.2 °F 93% 30.02 in 10.0 mi West 11.5 mph - N/A   Overcast
1:55 AM 31.6 °F 23.1 °F 30.6 °F 96% 30.02 in 10.0 mi WNW 10.4 mph - 0.00 in   Overcast
2:50 AM 32.0 °F 23.6 °F 30.2 °F 93% 30.04 in 10.0 mi West 10.4 mph - N/A   Overcast
2:55 AM 31.5 °F 22.3 °F 30.2 °F 95% 30.04 in 10.0 mi West 11.5 mph - N/A   Overcast
3:03 AM 32.0 °F 24.2 °F 30.2 °F 93% 30.03 in 10.0 mi WNW 9.2 mph - N/A   Overcast
3:31 AM 32.0 °F 23.0 °F 30.2 °F 93% 30.04 in 10.0 mi WNW 11.5 mph - N/A   Overcast
3:36 AM 32.0 °F 23.6 °F 30.2 °F 93% 30.04 in 10.0 mi West 10.4 mph - N/A   Overcast
3:44 AM 32.0 °F 22.5 °F 30.2 °F 93% 30.04 in 10.0 mi West 12.7 mph - N/A   Overcast
3:55 AM 31.3 °F 22.7 °F 30.6 °F 97% 30.04 in 10.0 mi West 10.4 mph - 0.00 in   Overcast
4:26 AM 32.0 °F 23.0 °F 30.2 °F 93% 30.04 in 10.0 mi WNW 11.5 mph - N/A   Overcast
4:35 AM 32.0 °F 23.6 °F 30.2 °F 93% 30.04 in 10.0 mi WNW 10.4 mph - N/A   Overcast
4:55 AM 31.1 °F 22.4 °F 30.6 °F 98% 30.04 in 10.0 mi WNW 10.4 mph - 0.00 in   Overcast
4:56 AM 32.0 °F 23.6 °F 30.2 °F 93% 30.04 in 10.0 mi West 10.4 mph - N/A   Overcast
5:04 AM 30.2 °F 21.9 °F 30.2 °F 100% 30.04 in 10.0 mi WNW 9.2 mph - N/A   Overcast
5:55 AM 31.5 °F 22.3 °F 30.7 °F 97% 30.06 in 10.0 mi West 11.5 mph - N/A   Overcast
6:41 AM 32.0 °F 22.5 °F 30.2 °F 93% 30.06 in 10.0 mi WNW 12.7 mph - N/A   Overcast
6:46 AM 32.0 °F 23.6 °F 30.2 °F 93% 30.07 in 10.0 mi WNW 10.4 mph - N/A   Overcast
6:55 AM 31.3 °F 23.3 °F 30.2 °F 96% 30.07 in 10.0 mi West 9.2 mph - N/A   Overcast
7:55 AM 31.5 °F 21.8 °F 30.4 °F 96% 30.10 in 10.0 mi NW 12.7 mph - N/A   Overcast
8:55 AM 31.8 °F 23.9 °F 30.6 °F 95% 30.12 in 10.0 mi NW 9.2 mph - N/A   Overcast
9:55 AM 32.7 °F 23.4 °F 30.0 °F 90% 30.14 in 10.0 mi NW 12.7 mph - N/A   Overcast
10:03 AM 32.0 °F 22.5 °F 30.2 °F 93% 30.14 in 10.0 mi NW 12.7 mph - N/A   Overcast
10:31 AM 32.0 °F 22.5 °F 30.2 °F 93% 30.11 in 10.0 mi NW 12.7 mph - N/A   Overcast
10:55 AM 34.3 °F 25.5 °F 29.8 °F 84% 30.15 in 10.0 mi NW 12.7 mph - N/A   Overcast
11:03 AM 33.8 °F 25.3 °F 30.2 °F 87% 30.12 in 10.0 mi NW 11.5 mph - N/A   Mostly Cloudy
11:10 AM 33.8 °F 24.3 °F 30.2 °F 87% 30.15 in 10.0 mi NW 13.8 mph - N/A   Overcast
11:15 AM 33.8 °F 23.9 °F 30.2 °F 87% 30.16 in 10.0 mi NW 15.0 mph - N/A   Overcast
11:52 AM 35.6 °F 26.6 °F 30.2 °F 81% 30.16 in 10.0 mi NW 13.8 mph - N/A Snow Light Snow
11:55 AM 34.7 °F 25.9 °F 30.6 °F 85% 30.16 in 10.0 mi WNW 12.7 mph - 0.00 in Snow Light Snow
12:19 PM 33.8 °F 23.9 °F 30.2 °F 87% 30.17 in 10.0 mi NW 15.0 mph 21.9 mph N/A   Overcast
12:40 PM 35.6 °F 28.6 °F 30.2 °F 81% 30.17 in 10.0 mi NW 9.2 mph - N/A   Overcast
12:49 PM 35.6 °F 28.0 °F 30.2 °F 81% 30.17 in 10.0 mi WNW 10.4 mph - N/A Snow Light Snow
12:55 PM 35.4 °F 26.0 °F 31.5 °F 85% 30.23 in 9.0 mi WNW 15.0 mph - 0.00 in Snow Light Snow
1:55 PM 36.3 °F 27.5 °F 28.8 °F 74% 30.18 in 10.0 mi NNW 13.8 mph - 0.00 in   Overcast
2:55 PM 35.4 °F 27.3 °F 30.7 °F 83% 30.18 in 10.0 mi West 11.5 mph - 0.00 in   Overcast
3:15 PM 35.6 °F 28.0 °F 28.4 °F 75% 30.18 in 10.0 mi WNW 10.4 mph - N/A Snow Light Snow
3:42 PM 37.4 °F 30.8 °F 28.4 °F 70% 30.18 in 10.0 mi NW 9.2 mph - N/A   Scattered Clouds
3:55 PM 37.4 °F 32.1 °F 28.2 °F 69% 30.18 in 10.0 mi NW 6.9 mph - 0.00 in   Mostly Cloudy
4:55 PM 37.4 °F 29.3 °F 25.9 °F 63% 30.18 in 10.0 mi WNW 12.7 mph - N/A   Overcast
5:55 PM 37.0 °F 30.4 °F 26.4 °F 65% 30.19 in 10.0 mi West 9.2 mph - N/A   Mostly Cloudy
6:31 PM 35.6 °F 26.6 °F 28.4 °F 75% 30.20 in 10.0 mi West 13.8 mph - N/A Snow Light Snow
6:45 PM 35.6 °F 27.5 °F 28.4 °F 75% 30.21 in 10.0 mi West 11.5 mph - N/A   Mostly Cloudy
6:55 PM 34.5 °F 25.7 °F 29.3 °F 81% 30.21 in 10.0 mi West 12.7 mph - 0.00 in Snow Light Snow
7:35 PM 33.8 °F 25.8 °F 28.4 °F 81% 30.22 in 10.0 mi West 10.4 mph - N/A   Overcast
7:52 PM 33.8 °F 25.3 °F 28.4 °F 81% 30.22 in 10.0 mi West 11.5 mph - N/A Snow Light Snow
7:55 PM 34.3 °F 25.5 °F 29.1 °F 81% 30.22 in 10.0 mi WNW 12.7 mph - 0.00 in Snow Light Snow
8:55 PM 33.4 °F 25.4 °F 29.8 °F 87% 30.23 in 10.0 mi West 10.4 mph - 0.00 in Snow Light Snow
9:24 PM 33.8 °F 27.7 °F 30.2 °F 87% 30.24 in 10.0 mi West 6.9 mph - N/A   Overcast
9:55 PM 32.9 °F 25.9 °F 29.3 °F 87% 30.24 in 10.0 mi West 8.1 mph - 0.00 in   Overcast
10:55 PM 33.1 °F 25.5 °F 28.8 °F 84% 30.25 in 10.0 mi West 9.2 mph - N/A   Overcast
11:55 PM 32.0 °F 24.2 °F 28.4 °F 87% 30.25 in 10.0 mi West 9.2 mph - N/A   Overcast